Terminal Aerodrome Forecast
Issued by NWS

Home | Current Version | Previous Version | Text Only | Print | Product List | Glossary On
Versions: 1 2 3 4 5 6 7 8 9 10 11 12 13
000
FTUS45 KGJT 162339 RRA
TAFRIL
TAF
KRIL 162339Z 1700/1724 34009KT P6SM BKN120
     FM170300 13004KT P6SM SKC
     FM171800 27004KT P6SM SCT200=

USA.gov is the U.S. government's official web portal to all federal, state and local government web resources and services.